Weather History for Monarch Pass, CO

Change the Weather History Date:

Thursday, February 14, 2013

  Actual Average (KGUC) Record (KGUC)
Temperature  
Mean Temperature 8 °F -  
Max Temperature 12 °F 28 °F 42 °F (2003)
Min Temperature 5 °F 3 °F -25 °F (2004)
Degree Days  
Heating Degree Days 56    
Moisture  
Dew Point 6 °F    
Average Humidity 85    
Maximum Humidity 92    
Minimum Humidity 79    
Precipitation  
Precipitation 0.00 in - - ()
Sea Level Pressure  
Sea Level Pressure 30.14 in    
Wind  
Wind Speed 10 mph (West)    
Max Wind Speed 13 mph    
Max Gust Speed -    
Averages and records for this station are not official NWS values.
T = Trace of Precipitation, MM = Missing Value Source: NWS Daily Summary

Daily Weather History Graph

Daily Weather History Graph

Search for Another Location

Airport:

Trip Planner

Search our weather history database for the weather conditions in past years. The results will help you decide how hot, cold, wet, or windy it might be!

Date:

Astronomy

Feb. 14, 2013 Rise Set
Actual Time 6:56 AM MST 5:42 PM MST
Civil Twilight 6:29 AM MST 6:09 PM MST
Nautical Twilight 5:58 AM MST 6:40 PM MST
Astronomical Twilight 5:27 AM MST 7:11 PM MST
Moon 9:04 AM MST (2/14) 10:43 PM MST (2/14)
Length of Visible Light 11h 40m
Length of Day
10h 45m
Waxing Crescent, 22% of the Moon is Illuminated
Feb 14
Waxing Crescent
Feb 17
First Quarter
Feb 25
Full
Mar 4
Last Quarter
Mar 11
New

Hourly Weather History & Observations

Time (MST) Temp. Windchill Dew Point Humidity Pressure Visibility Wind Dir Wind Speed Gust Speed Precip Events Conditions
12:18 AM 8.6 °F - 5.0 °F 85% 30.12 in - North - - N/A   Unknown
12:38 AM 8.6 °F - 5.0 °F 85% 30.11 in - North - - N/A   Unknown
12:58 AM 8.6 °F - 5.0 °F 85% 30.10 in - North - - N/A   Unknown
1:18 AM 8.6 °F - 5.0 °F 85% 30.10 in - North - - N/A   Unknown
1:38 AM 8.6 °F - 5.0 °F 85% 30.10 in - North - - N/A   Unknown
1:58 AM 8.6 °F - 5.0 °F 85% 30.09 in - North - - N/A   Unknown
2:18 AM 8.6 °F - 5.0 °F 85% 30.09 in - North - - N/A   Unknown
2:38 AM 8.6 °F - 5.0 °F 85% 30.09 in - North - - N/A   Unknown
3:18 AM 8.6 °F - 5.0 °F 85% 30.08 in - North - - N/A   Unknown
3:38 AM 8.6 °F - 5.0 °F 85% 30.08 in - North - - N/A   Unknown
3:58 AM 8.6 °F - 5.0 °F 85% 30.08 in - North - - N/A   Unknown
4:18 AM 8.6 °F - 5.0 °F 85% 30.07 in - North - - N/A   Unknown
4:38 AM 8.6 °F - 5.0 °F 85% 30.07 in - North - - N/A   Unknown
4:58 AM 8.6 °F - 5.0 °F 85% 30.07 in - North - - N/A   Unknown
5:18 AM 8.6 °F - 5.0 °F 85% 30.07 in - North - - N/A   Unknown
5:38 AM 10.4 °F - 5.0 °F 79% 30.08 in - North - - N/A   Overcast
5:58 AM 8.6 °F - 5.0 °F 85% 30.07 in - North - - N/A   Overcast
6:18 AM 8.6 °F - 5.0 °F 85% 30.07 in - North - - N/A   Overcast
6:38 AM 8.6 °F - 5.0 °F 85% 30.07 in - North - - N/A   Overcast
6:58 AM 8.6 °F - 5.0 °F 85% 30.08 in - North - - N/A   Unknown
7:18 AM 8.6 °F - 5.0 °F 85% 30.09 in - North - - N/A   Overcast
7:38 AM 8.6 °F - 5.0 °F 85% 30.09 in - North - - N/A   Overcast
7:58 AM 8.6 °F - 5.0 °F 85% 30.09 in - North - - N/A   Overcast
8:18 AM 8.6 °F - 5.0 °F 85% 30.10 in - North - - N/A   Overcast
8:38 AM 10.4 °F - 5.0 °F 79% 30.10 in - North - - N/A   Overcast
8:58 AM 10.4 °F - 5.0 °F 79% 30.12 in - North - - N/A   Overcast
9:18 AM 10.4 °F - 6.8 °F 85% 30.14 in - North - - N/A   Overcast
9:38 AM 10.4 °F - 8.6 °F 92% 30.14 in - North - - N/A   Unknown
9:58 AM 10.4 °F -3.3 °F 6.8 °F 85% 30.14 in - NW 10.4 mph - N/A   Unknown
10:18 AM 10.4 °F -2.4 °F 8.6 °F 92% 30.15 in - WNW 9.2 mph - N/A   Unknown
10:38 AM 12.2 °F - 8.6 °F 85% 30.14 in - North - - N/A   Unknown
10:58 AM 12.2 °F - 8.6 °F 85% 30.15 in - North - - N/A   Unknown
11:18 AM 12.2 °F - 8.6 °F 85% 30.16 in - North - - N/A   Unknown
11:38 AM 10.4 °F -4.8 °F 8.6 °F 92% 30.16 in - SW 12.7 mph - N/A   Overcast
11:58 AM 10.4 °F - 6.8 °F 85% 30.17 in - North - - N/A   Overcast
12:18 PM 10.4 °F - 8.6 °F 92% 30.17 in - North - - N/A   Unknown
12:38 PM 12.2 °F - 8.6 °F 85% 30.17 in - North - - N/A   Unknown
12:58 PM 12.2 °F 0.7 °F 8.6 °F 85% 30.17 in - SW 8.1 mph - N/A   Unknown
1:18 PM 12.2 °F - 8.6 °F 85% 30.17 in - North - - N/A   Overcast
1:38 PM 12.2 °F - 8.6 °F 85% 30.17 in - North - - N/A   Unknown
1:58 PM 12.2 °F - 8.6 °F 85% 30.17 in - North - - N/A   Unknown
2:18 PM 12.2 °F - 8.6 °F 85% 30.16 in - North - - N/A   Overcast
2:38 PM 12.2 °F - 8.6 °F 85% 30.16 in - North - - N/A   Overcast
2:58 PM 12.2 °F - 8.6 °F 85% 30.17 in - North - - N/A   Overcast
3:18 PM 12.2 °F - 8.6 °F 85% 30.18 in - North - - N/A   Overcast
3:38 PM 12.2 °F - 8.6 °F 85% 30.18 in - North - - N/A   Overcast
3:58 PM 12.2 °F - 8.6 °F 85% 30.18 in - North - - N/A   Overcast
4:18 PM 12.2 °F - 8.6 °F 85% 30.18 in - North - - N/A   Overcast
4:38 PM 12.2 °F - 8.6 °F 85% 30.19 in - North - - N/A   Overcast
4:58 PM 12.2 °F - 8.6 °F 85% 30.18 in - North - - N/A   Overcast
5:18 PM 12.2 °F - 8.6 °F 85% 30.19 in - North - - N/A   Overcast
5:38 PM 12.2 °F - 8.6 °F 85% 30.20 in - North - - N/A   Overcast
5:58 PM 12.2 °F - 8.6 °F 85% 30.20 in - North - - N/A   Overcast
6:18 PM 10.4 °F - 6.8 °F 85% 30.20 in - North - - N/A   Overcast
6:38 PM 10.4 °F - 6.8 °F 85% 30.20 in - North - - N/A   Overcast
6:58 PM 10.4 °F - 5.0 °F 79% 30.20 in - North - - N/A   Overcast
7:18 PM 8.6 °F - 5.0 °F 85% 30.20 in - North - - N/A   Overcast
7:38 PM 8.6 °F - 3.2 °F 79% 30.20 in - North - - N/A   Mostly Cloudy
7:58 PM 8.6 °F - 3.2 °F 79% 30.20 in - North - - N/A   Unknown
8:18 PM 8.6 °F - 3.2 °F 79% 30.19 in - North - - N/A   Unknown
8:38 PM 6.8 °F - 3.2 °F 85% 30.18 in - North - - N/A   Unknown
8:58 PM 6.8 °F - 3.2 °F 85% 30.19 in - North - - N/A   Unknown
9:18 PM 6.8 °F - 3.2 °F 85% 30.18 in - North - - N/A   Unknown
9:38 PM 5.0 °F - 3.2 °F 92% 30.19 in - North - - N/A   Unknown
9:58 PM 5.0 °F - 3.2 °F 92% 30.19 in - North - - N/A   Unknown
10:18 PM 5.0 °F - 1.4 °F 85% 30.20 in - North - - N/A   Unknown
10:38 PM 5.0 °F - 1.4 °F 85% 30.18 in - North - - N/A   Unknown
10:58 PM 5.0 °F - 1.4 °F 85% 30.18 in - North - - N/A   Unknown
11:18 PM 5.0 °F - 1.4 °F 85% 30.19 in - North - - N/A   Unknown
11:38 PM 5.0 °F - 1.4 °F 85% 30.18 in - North - - N/A   Unknown
11:58 PM 5.0 °F - 1.4 °F 85% 30.19 in - North - - N/A   Unknown